Home > Weather > Bradenton > Past weeks

Flag for USA Weather for the Past 2 Weeks in Bradenton, Florida, USA

Now
83 °F

Sunny.


Feels Like: 86 °F
Forecast: 71 / 86 °F
Wind: 12 mph from West

Location: Sarasota-Bradenton International Airport

Current Time: Apr 28, 2016 at 6:18:14 PM

Latest Report: Apr 28, 2016 at 4:53 PM


Visibility: 10 mi

Pressure: 29.95 "Hg

Humidity: 61%

Dew Point: 68 °F

Location of BradentonLocation

Historic Weather in Bradenton — Graph

°F

Bradenton Temperature Yesterday

Maximum temperature yesterday: 84 °F (at 1:53 PM)
Minimum temperature yesterday: 67 °F (at 2:53 AM)
Average temperature yesterday: 76 °F

High & Low Weather Summary for the Past Weeks

 TemperatureHumidityPressure
High86 °F (Apr 24, 3:53 PM)94% (Apr 24, 4:53 AM)30.22 "Hg (Apr 24, 4:53 AM)
Low60 °F (Apr 18, 5:53 AM)32% (Apr 19, 2:53 PM)29.86 "Hg (Apr 15, 4:53 AM)
Average75 °F66%30.00 "Hg
* Reported Apr 13 4:53 PM — Apr 28 4:53 PM, Bradenton, Weather by CustomWeather, © 2016

Note: Actual official high and low records may vary slightly from our data, if they occured in-between our weather recording intervals... More about our weather records

Advertising

Bradenton Weather History for the Previous 24 Hours

Scroll right to see more
 ConditionsComfort  
Time TempWeatherWind HumidityBarometerVisibility
4:53 PM
Thu, Apr 28
83 °FSunny.12 mph61%29.95 "Hg10 mi
3:53 PM84 °FSunny.10 mph57%29.96 "Hg10 mi
2:53 PM84 °FSunny.13 mph55%29.98 "Hg10 mi
1:53 PM84 °FSunny.13 mph57%29.98 "Hg10 mi
12:53 PM84 °FSunny.12 mph59%29.99 "Hg10 mi
11:53 AM84 °FSunny.13 mph57%30.00 "Hg10 mi
10:53 AM83 °FSunny.10 mph59%30.00 "Hg10 mi
9:53 AM81 °FSunny.10 mph65%29.97 "Hg10 mi
8:53 AM77 °FSunny.8 mph74%29.97 "Hg10 mi
7:53 AM72 °FPassing clouds.3 mph84%29.97 "Hg10 mi
6:53 AM70 °FClear.6 mph84%29.93 "Hg10 mi
5:53 AM69 °FClear.7 mph87%29.90 "Hg10 mi
4:53 AM68 °FClear.6 mph90%29.90 "Hg10 mi
3:53 AM69 °FClear.5 mph90%29.92 "Hg10 mi
2:53 AM71 °FClear.3 mph87%29.93 "Hg10 mi
1:53 AM72 °FClear.6 mph87%29.94 "Hg10 mi
12:53 AM74 °FPassing clouds.No wind82%29.95 "Hg10 mi
11:53 PM
Wed, Apr 27
76 °FClear.5 mph77%29.95 "Hg10 mi
10:53 PM77 °FPassing clouds.6 mph74%29.94 "Hg10 mi
9:53 PM77 °FClear.6 mph71%29.93 "Hg10 mi
8:53 PM77 °FSunny.5 mph71%29.91 "Hg10 mi
7:53 PM78 °FSunny.6 mph64%29.89 "Hg10 mi
6:53 PM80 °FSunny.3 mph60%29.88 "Hg10 mi
Weather by CustomWeather, © 2016

See weather overviewHow to use our weather pages